Terminal Aerodrome Forecast
Issued by NWS Upton, NY

Home | Current Version | Previous Version | Text Only | Print | Product List | Glossary On
Versions: 1 2 3 4 5 6 7 8 9 10 11 12 13 14 15 16 17 18 19 20 21 22 23 24 25 26 27 28 29 30 31 32 33 34 35 36
000
FTUS41 KOKX 231239 AAA
TAFBDR
TAF AMD
KBDR 231239Z 2313/2412 06021G28KT P6SM OVC030
     FM231400 06023G34KT P6SM -DZ SCT014 OVC025
     FM231700 06028G42KT 6SM -DZ BR OVC010
     FM232100 06030G48KT 3SM RA BR OVC008
     FM240000 05028G43KT 2SM +RA BR OVC006
     FM240800 03022G33KT 3SM RA BR OVC006=

USA.gov is the U.S. government's official web portal to all federal, state and local government web resources and services.